User: anonymous   Login
Location: Unspecified
(0.0000°N, 0.0000°E)
Time: 12:37:04
(UTC+00:00)
Language:

DOVE 2 - Orbit

View from above orbital plane
View from above orbital plane
View from above satellite
View from above satellite

Ground track
Ground track

The orbit data is extracted from the following two-line orbital elements,

1 39132U 13015C   18172.20731135  .00000089  00000-0  17886-4 0  9990
2 39132  64.8746 185.5277 0022064 219.5772 219.7993 15.07011452284096
Epoch (UTC): 21 June 2018 04:58:31
Eccentricity: 0.0022064
inclination: 64.8746°
perigee height: 530 km
apogee height: 560 km
right ascension of ascending node: 185.5277°
argument of perigee: 219.5772°
revolutions per day: 15.07011452
mean anomaly at epoch: 219.7993°
orbit number at epoch: 28409

The dashed part of the orbit path shows where the satellite is in the earth's shadow,  

DLR